Miscellaneous Local Product
Issued by NWS Hastings, NE

Home | Current Version | Previous Version | Text Only | Print | Product List | Glossary On
Versions: 1 2 3 4 5 6 7 8 9 10 11 12 13 14 15 16 17 18 19 20 21 22 23 24 25 26 27 28 29 30 31 32 33 34 35 36 37 38 39 40 41 42 43 44 45 46 47 48 49 50
000
AXUS43 KGID 221402
MISGRI

GID CWA HOURLY WEATHER ROUNDUP
NATIONAL WEATHER SERVICE HASTINGS NE
900 AM CDT FRI AUG 22 2014

NOTE: "FAIR" INDICATES FEW OR NO CLOUDS BELOW 12,000 FEET WITH NO
SIGNIFICANT WEATHER AND/OR OBSTRUCTIONS TO VISIBILITY.

...SOUTH CENTRAL NEBRASKA...

CITY           SKY/WX    TMP DP  RH WIND       PRES   REMARKS
GRAND ISLAND   SUNNY     74  68  81 NE6       29.95S
HASTINGS       SUNNY     75  66  73 NE5       29.94R
KEARNEY        CLOUDY    70  70 100 NE8       29.96S VSB 1
ORD            MOSUNNY   74  69  85 VRB3      29.95S
YORK           MOSUNNY   73 N/A N/A NE3       29.93S
AURORA         SUNNY     75  72  91 NE5       29.94S
LEXINGTON      MOSUNNY   72  71  95 NW9       29.99R FOG
HOLDREGE       SUNNY     72  69  90 NE8       29.97R
HEBRON         SUNNY     77  68  74 SE6       29.92R

...NEBRASKA PANHANDLE...

CITY           SKY/WX    TMP DP  RH WIND       PRES   REMARKS
CHADRON        CLOUDY    63  56  78 W3        30.09R
ALLIANCE       CLOUDY    67  52  58 N6        30.10S
SCOTTSBLUFF    CLOUDY    65  55  70 NW10      30.11S
SIDNEY         CLOUDY    63  60  90 SW3       30.13S

...WESTERN AND NORTH CENTRAL NEBRASKA...

CITY           SKY/WX    TMP DP  RH WIND       PRES   REMARKS
VALENTINE      CLOUDY    69  62  78 E3        30.01F
AINSWORTH      CLOUDY    69  66  90 CALM      30.02S
ONEILL         PTSUNNY   74  71  89 NE6       29.99R
BROKEN BOW     CLOUDY    75  69  81 N3        29.99R
IMPERIAL       CLOUDY    68  59  73 N15       30.02F
NORTH PLATTE   CLOUDY    70  65  84 NW6       30.03R
MCCOOK         PTSUNNY   76  69  79 N12       30.00S

...EASTERN NEBRASKA...

CITY           SKY/WX    TMP DP  RH WIND       PRES   REMARKS
NORFOLK        SUNNY     79  70  74 CALM      29.94R
SO SIOUX CITY  SUNNY     79  72  79 CALM      29.92R
TEKAMAH        SUNNY     79  73  82 N6        29.91S
COLUMBUS       SUNNY     61 N/A N/A E5        29.94F
ALBION         SUNNY     75  70  84 NE5       29.95R
OMAHA EPPLEY   PTSUNNY   77  71  82 SE7       29.91R
OFFUTT AFB     PTSUNNY   78  77  99 SE1       29.91R
MILLARD        SUNNY     79  73  82 SE5       29.91R
LINCOLN        SUNNY     79  73  82 CALM      29.92R
NEBRASKA CITY  MOSUNNY   76  74  94 S8        29.93R
BEATRICE       SUNNY     78  72  80 SE8       29.92R
FALLS CITY     CLOUDY    79  71  76 S8        29.93R

...NORTHERN KANSAS...

CITY           SKY/WX    TMP DP  RH WIND       PRES   REMARKS
GOODLAND       SUNNY     73  56  54 N20G26    30.03F
HILL CITY      PTSUNNY   77  68  73 N9        29.93F
NORTON         SUNNY     73  64  73 N12       29.96R
PHILLIPSBURG   SUNNY     75  66  73 N8        29.93S
SMITH CENTER   SUNNY     75  68  78 NE9       29.92R
HAYS           CLOUDY    73  64  73 N18       29.91S THUNDER
RUSSELL        PTSUNNY   79  66  64 W6        29.90R
CONCORDIA      TSTM      75  71  87 S3        29.90S
SALINA         MOSUNNY   84  68  58 S6        29.90R
TOPEKA         MOSUNNY   85  71  63 CALM      29.95R HX  90



USA.gov is the U.S. government's official web portal to all federal, state and local government web resources and services.